Year,Month,Day,Hour,Minute,Value (Times are PST for temperature in C)
2012,06,26,10,15,15.90
2012,06,26,10,16,16.00
2012,06,26,10,17,16.10
2012,06,26,10,18,16.10
2012,06,26,10,19,16.10
2012,06,26,10,20,16.10
2012,06,26,10,21,16.10
2012,06,26,10,22,16.10
2012,06,26,10,23,16.10
2012,06,26,10,24,16.20
2012,06,26,10,25,16.20
2012,06,26,10,26,16.20
2012,06,26,10,27,16.10
2012,06,26,10,28,16.10
2012,06,26,10,29,16.20
2012,06,26,10,30,16.30
2012,06,26,10,31,16.40
2012,06,26,10,32,16.40
2012,06,26,10,33,16.50
2012,06,26,10,34,16.60
2012,06,26,10,35,16.60
2012,06,26,10,36,16.60
2012,06,26,10,37,16.70
2012,06,26,10,38,16.70
2012,06,26,10,39,16.80
2012,06,26,10,40,16.70
2012,06,26,10,41,16.80
2012,06,26,10,42,16.90
2012,06,26,10,43,16.90
2012,06,26,10,44,16.90
2012,06,26,10,45,16.80
2012,06,26,10,46,16.70
2012,06,26,10,47,16.70
2012,06,26,10,48,16.70
2012,06,26,10,49,16.70
2012,06,26,10,50,16.70
2012,06,26,10,51,16.70
2012,06,26,10,52,16.70
2012,06,26,10,53,16.70
2012,06,26,10,54,16.70
2012,06,26,10,55,16.80
2012,06,26,10,56,16.90
2012,06,26,10,57,16.90
2012,06,26,10,58,16.80
2012,06,26,10,59,16.80
2012,06,26,11,00,16.80
2012,06,26,11,01,16.70
2012,06,26,11,02,16.70
2012,06,26,11,03,16.60
2012,06,26,11,04,16.50
2012,06,26,11,05,16.40
2012,06,26,11,06,16.30
2012,06,26,11,07,16.20
2012,06,26,11,08,16.20
2012,06,26,11,09,16.10
2012,06,26,11,10,16.10
2012,06,26,11,11,16.20
2012,06,26,11,12,16.30
2012,06,26,11,13,16.40
2012,06,26,11,14,16.40
2012,06,26,11,15,16.50
2012,06,26,11,16,16.60
2012,06,26,11,17,16.70
2012,06,26,11,18,16.80
2012,06,26,11,19,16.90
2012,06,26,11,20,17.00
2012,06,26,11,21,17.10
2012,06,26,11,22,17.20
2012,06,26,11,23,17.30
2012,06,26,11,24,17.40
2012,06,26,11,25,17.50
2012,06,26,11,26,17.60
2012,06,26,11,27,17.70
2012,06,26,11,28,17.80
2012,06,26,11,29,17.80
2012,06,26,11,30,17.80
2012,06,26,11,31,17.60
2012,06,26,11,32,17.60
2012,06,26,11,33,17.60
2012,06,26,11,34,17.60
2012,06,26,11,35,17.70
2012,06,26,11,36,17.80
2012,06,26,11,37,17.90
2012,06,26,11,38,17.90
2012,06,26,11,39,17.90
2012,06,26,11,40,18.10
2012,06,26,11,41,18.10
2012,06,26,11,42,18.00
2012,06,26,11,43,17.90
2012,06,26,11,44,17.80
2012,06,26,11,45,17.70
2012,06,26,11,46,17.70
2012,06,26,11,47,17.90
2012,06,26,11,48,17.90
2012,06,26,11,49,17.90
2012,06,26,11,50,17.90
2012,06,26,11,51,18.00
2012,06,26,11,52,18.10
2012,06,26,11,53,18.00
2012,06,26,11,54,17.90
2012,06,26,11,55,17.90
2012,06,26,11,56,17.90
2012,06,26,11,57,17.90
2012,06,26,11,58,18.10
2012,06,26,11,59,18.10
2012,06,26,12,00,18.20
2012,06,26,12,01,18.20
2012,06,26,12,02,18.30
2012,06,26,12,03,18.40
2012,06,26,12,04,18.50
2012,06,26,12,05,18.60
2012,06,26,12,06,18.70
2012,06,26,12,07,18.90
2012,06,26,12,08,18.90
2012,06,26,12,09,19.00
2012,06,26,12,10,19.00
2012,06,26,12,11,18.90
2012,06,26,12,12,18.90
2012,06,26,12,13,19.00
2012,06,26,12,14,19.10
2012,06,26,12,15,19.10
2012,06,26,12,16,19.10
2012,06,26,12,17,19.10
2012,06,26,12,18,19.10
2012,06,26,12,19,19.00
2012,06,26,12,20,18.90
2012,06,26,12,21,18.90
2012,06,26,12,22,18.90
2012,06,26,12,23,19.00
2012,06,26,12,24,19.10
2012,06,26,12,25,19.00
2012,06,26,12,26,18.90
2012,06,26,12,27,18.90
2012,06,26,12,28,18.80
2012,06,26,12,29,18.80
2012,06,26,12,30,18.70
2012,06,26,12,31,18.60
2012,06,26,12,32,18.70
2012,06,26,12,33,18.80
2012,06,26,12,34,18.90
2012,06,26,12,35,19.00
2012,06,26,12,36,19.10
2012,06,26,12,37,19.20
2012,06,26,12,38,19.40
2012,06,26,12,39,19.50
2012,06,26,12,40,19.60
2012,06,26,12,41,19.70
2012,06,26,12,42,19.60
2012,06,26,12,43,19.50
2012,06,26,12,44,19.30
2012,06,26,12,45,19.10
2012,06,26,12,46,19.00
2012,06,26,12,47,18.90
2012,06,26,12,48,19.00
2012,06,26,12,49,19.10
2012,06,26,12,50,19.00
2012,06,26,12,51,18.90
2012,06,26,12,52,19.00
2012,06,26,12,53,19.10
2012,06,26,12,54,19.10
2012,06,26,12,55,19.20
2012,06,26,12,56,19.30
2012,06,26,12,57,19.30
2012,06,26,12,58,19.20
2012,06,26,12,59,19.10
2012,06,26,13,00,19.10
2012,06,26,13,01,19.10
2012,06,26,13,02,19.00
2012,06,26,13,03,18.90
2012,06,26,13,04,18.90
2012,06,26,13,05,18.90
2012,06,26,13,06,18.90
2012,06,26,13,07,18.80
2012,06,26,13,08,18.70
2012,06,26,13,09,18.70
2012,06,26,13,10,18.60
2012,06,26,13,11,18.70
2012,06,26,13,12,18.80
2012,06,26,13,13,18.90
2012,06,26,13,14,18.80
2012,06,26,13,15,18.90
2012,06,26,13,16,18.90
2012,06,26,13,17,18.90
2012,06,26,13,18,18.90
2012,06,26,13,19,18.90
2012,06,26,13,20,18.90
2012,06,26,13,21,18.80
2012,06,26,13,22,18.80
2012,06,26,13,23,18.90
2012,06,26,13,24,18.90
2012,06,26,13,25,19.00
2012,06,26,13,26,19.10
2012,06,26,13,27,19.10
2012,06,26,13,28,19.20
2012,06,26,13,29,19.30
2012,06,26,13,30,19.30
2012,06,26,13,31,19.30
2012,06,26,13,32,19.30
2012,06,26,13,33,19.30
2012,06,26,13,34,19.30
2012,06,26,13,35,19.30
2012,06,26,13,36,19.20
2012,06,26,13,37,19.00
2012,06,26,13,38,18.90
2012,06,26,13,39,18.90
2012,06,26,13,40,18.80
2012,06,26,13,41,18.70
2012,06,26,13,42,18.70
2012,06,26,13,43,18.70
2012,06,26,13,44,18.70
2012,06,26,13,45,18.80
2012,06,26,13,46,18.90
2012,06,26,13,47,18.90
2012,06,26,13,48,19.10
2012,06,26,13,49,19.10
2012,06,26,13,50,19.30
2012,06,26,13,51,19.30
2012,06,26,13,52,19.30
2012,06,26,13,53,19.20
2012,06,26,13,54,19.20
2012,06,26,13,55,19.30
2012,06,26,13,56,19.30
2012,06,26,13,57,19.40
2012,06,26,13,58,19.60
2012,06,26,13,59,19.60
2012,06,26,14,00,19.60
2012,06,26,14,01,19.60
2012,06,26,14,02,19.70
2012,06,26,14,03,19.80
2012,06,26,14,04,19.90
2012,06,26,14,05,19.90
2012,06,26,14,06,19.90
2012,06,26,14,07,20.00
2012,06,26,14,08,20.10
2012,06,26,14,09,20.10
2012,06,26,14,10,20.10
2012,06,26,14,11,20.10
2012,06,26,14,12,20.00
2012,06,26,14,13,19.90
2012,06,26,14,14,19.70
2012,06,26,14,15,19.70
2012,06,26,14,16,19.80
2012,06,26,14,17,19.80
2012,06,26,14,18,19.80
2012,06,26,14,19,19.80
2012,06,26,14,20,19.90
2012,06,26,14,21,19.90
2012,06,26,14,22,19.90
2012,06,26,14,23,19.90
2012,06,26,14,24,19.90
2012,06,26,14,25,19.80
2012,06,26,14,26,19.70
2012,06,26,14,27,19.70
2012,06,26,14,28,19.70
2012,06,26,14,29,19.60
2012,06,26,14,30,19.60
2012,06,26,14,31,19.60
2012,06,26,14,32,19.60
2012,06,26,14,33,19.70
2012,06,26,14,34,19.90
2012,06,26,14,35,20.00
2012,06,26,14,36,20.20
2012,06,26,14,37,20.20
2012,06,26,14,38,20.20
2012,06,26,14,39,20.20
2012,06,26,14,40,20.10
2012,06,26,14,41,20.20
2012,06,26,14,42,20.20
2012,06,26,14,43,20.20
2012,06,26,14,44,20.20
2012,06,26,14,45,20.20
2012,06,26,14,46,20.00
2012,06,26,14,47,19.90
2012,06,26,14,48,19.80
2012,06,26,14,49,19.70
2012,06,26,14,50,19.60
2012,06,26,14,51,19.50
2012,06,26,14,52,19.50
2012,06,26,14,53,19.40
2012,06,26,14,54,19.30
2012,06,26,14,55,19.20
2012,06,26,14,56,19.20
2012,06,26,14,57,19.20
2012,06,26,14,58,19.40
2012,06,26,14,59,19.60
2012,06,26,15,00,19.70
2012,06,26,15,01,19.80
2012,06,26,15,02,19.80
2012,06,26,15,03,19.80
2012,06,26,15,04,19.80
2012,06,26,15,05,19.70
2012,06,26,15,06,19.60
2012,06,26,15,07,19.50
2012,06,26,15,08,19.50
2012,06,26,15,09,19.50
2012,06,26,15,10,19.50
2012,06,26,15,11,19.60
2012,06,26,15,12,19.60
2012,06,26,15,13,19.50
2012,06,26,15,14,19.40
2012,06,26,15,15,19.40
2012,06,26,15,16,19.50
2012,06,26,15,17,19.50
2012,06,26,15,18,19.50
2012,06,26,15,19,19.60
2012,06,26,15,20,19.70
2012,06,26,15,21,19.60
2012,06,26,15,22,19.60
2012,06,26,15,23,19.60
2012,06,26,15,24,19.50
2012,06,26,15,25,19.50
2012,06,26,15,26,19.60
2012,06,26,15,27,19.60
2012,06,26,15,28,19.60
2012,06,26,15,29,19.60
2012,06,26,15,30,19.50
2012,06,26,15,31,19.40
2012,06,26,15,32,19.30
2012,06,26,15,33,19.20
2012,06,26,15,34,19.10
2012,06,26,15,35,19.10
2012,06,26,15,36,19.10
2012,06,26,15,37,19.10
2012,06,26,15,38,19.20
2012,06,26,15,39,19.30
2012,06,26,15,40,19.30
2012,06,26,15,41,19.40
2012,06,26,15,42,19.40
2012,06,26,15,43,19.40
2012,06,26,15,44,19.40
2012,06,26,15,45,19.40
2012,06,26,15,46,19.50
2012,06,26,15,47,19.40
2012,06,26,15,48,19.40
2012,06,26,15,49,19.40
2012,06,26,15,50,19.40
2012,06,26,15,51,19.40
2012,06,26,15,52,19.40
2012,06,26,15,53,19.40
2012,06,26,15,54,19.40
2012,06,26,15,55,19.40
2012,06,26,15,56,19.40
2012,06,26,15,57,19.30
2012,06,26,15,58,19.20
2012,06,26,15,59,19.10
2012,06,26,16,00,19.10
2012,06,26,16,01,19.10
2012,06,26,16,02,19.10
2012,06,26,16,03,19.10
2012,06,26,16,04,19.10
2012,06,26,16,05,19.20
2012,06,26,16,06,19.20
2012,06,26,16,07,19.20
2012,06,26,16,08,19.30
2012,06,26,16,09,19.30
2012,06,26,16,10,19.20
2012,06,26,16,11,19.10
2012,06,26,16,12,19.10
2012,06,26,16,13,19.10
2012,06,26,16,14,19.10
2012,06,26,16,15,19.10
2012,06,26,16,16,19.20
2012,06,26,16,17,19.30
2012,06,26,16,18,19.30
2012,06,26,16,19,19.30
2012,06,26,16,20,19.30
2012,06,26,16,21,19.30
2012,06,26,16,22,19.30
2012,06,26,16,23,19.30
2012,06,26,16,24,19.40
2012,06,26,16,25,19.40
2012,06,26,16,26,19.50
2012,06,26,16,27,19.60
2012,06,26,16,28,19.60
2012,06,26,16,29,19.70
2012,06,26,16,30,19.70
2012,06,26,16,31,19.60
2012,06,26,16,32,19.40
2012,06,26,16,33,19.10
2012,06,26,16,34,19.00
2012,06,26,16,35,18.90
2012,06,26,16,36,18.90
2012,06,26,16,37,18.90
2012,06,26,16,38,18.90
2012,06,26,16,39,19.10
2012,06,26,16,40,19.10
2012,06,26,16,41,19.20
2012,06,26,16,42,19.30
2012,06,26,16,43,19.10
2012,06,26,16,44,19.10
2012,06,26,16,45,19.10
2012,06,26,16,46,19.10
2012,06,26,16,47,19.10
2012,06,26,16,48,19.20
2012,06,26,16,49,19.30
2012,06,26,16,50,19.40
2012,06,26,16,51,19.30
2012,06,26,16,52,19.30
2012,06,26,16,53,19.30
2012,06,26,16,54,19.30
2012,06,26,16,55,19.40
2012,06,26,16,56,19.40
2012,06,26,16,57,19.40
2012,06,26,16,58,19.40
2012,06,26,16,59,19.50
2012,06,26,17,00,19.40
2012,06,26,17,01,19.30
2012,06,26,17,02,19.30
2012,06,26,17,03,19.30
2012,06,26,17,04,19.30
2012,06,26,17,05,19.30
2012,06,26,17,06,19.40
2012,06,26,17,07,19.50
2012,06,26,17,08,19.60
2012,06,26,17,09,19.60
2012,06,26,17,10,19.60
2012,06,26,17,11,19.60
2012,06,26,17,12,19.70
2012,06,26,17,13,19.60
2012,06,26,17,14,19.50
2012,06,26,17,15,19.50
2012,06,26,17,16,19.50
2012,06,26,17,17,19.40
2012,06,26,17,18,19.30
2012,06,26,17,19,19.10
2012,06,26,17,20,19.00
2012,06,26,17,21,18.90
2012,06,26,17,22,18.70
2012,06,26,17,23,18.70
2012,06,26,17,24,18.70
2012,06,26,17,25,18.70
2012,06,26,17,26,18.70
2012,06,26,17,27,18.70
2012,06,26,17,28,18.70
2012,06,26,17,29,18.70
2012,06,26,17,30,18.60
2012,06,26,17,31,18.50
2012,06,26,17,32,18.50
2012,06,26,17,33,18.50
2012,06,26,17,34,18.50
2012,06,26,17,35,18.60
2012,06,26,17,36,18.70
2012,06,26,17,37,18.70
2012,06,26,17,38,18.70
2012,06,26,17,39,18.80
2012,06,26,17,40,18.90
2012,06,26,17,41,18.90
2012,06,26,17,42,19.10
2012,06,26,17,43,19.10
2012,06,26,17,44,19.10
2012,06,26,17,45,19.10
2012,06,26,17,46,19.10
2012,06,26,17,47,19.10
2012,06,26,17,48,19.10
2012,06,26,17,49,19.10
2012,06,26,17,50,19.10
2012,06,26,17,51,19.10
2012,06,26,17,52,19.20
2012,06,26,17,53,19.20
2012,06,26,17,54,19.20
2012,06,26,17,55,19.10
2012,06,26,17,56,19.10
2012,06,26,17,57,19.10
2012,06,26,17,58,19.10
2012,06,26,17,59,19.10
2012,06,26,18,00,19.10
2012,06,26,18,01,19.10
2012,06,26,18,02,19.00
2012,06,26,18,03,18.90
2012,06,26,18,04,18.90
2012,06,26,18,05,18.90
2012,06,26,18,06,18.90
2012,06,26,18,07,18.80
2012,06,26,18,08,18.70
2012,06,26,18,09,18.70
2012,06,26,18,10,18.70
2012,06,26,18,11,18.70
2012,06,26,18,12,18.70
2012,06,26,18,13,18.80
2012,06,26,18,14,18.90
2012,06,26,18,15,18.90
2012,06,26,18,16,18.90
2012,06,26,18,17,18.80
2012,06,26,18,18,18.70
2012,06,26,18,19,18.80
2012,06,26,18,20,18.80
2012,06,26,18,21,18.80
2012,06,26,18,22,18.80
2012,06,26,18,23,18.80
2012,06,26,18,24,18.80
2012,06,26,18,25,18.70
2012,06,26,18,26,18.70
2012,06,26,18,27,18.60
2012,06,26,18,28,18.60
2012,06,26,18,29,18.50
2012,06,26,18,30,18.40
2012,06,26,18,31,18.40
2012,06,26,18,32,18.50
2012,06,26,18,33,18.50
2012,06,26,18,34,18.60
2012,06,26,18,35,18.60
2012,06,26,18,36,18.60
2012,06,26,18,37,18.60
2012,06,26,18,38,18.50
2012,06,26,18,39,18.50
2012,06,26,18,40,18.40
2012,06,26,18,41,18.30
2012,06,26,18,42,18.30
2012,06,26,18,43,18.20
2012,06,26,18,44,18.20
2012,06,26,18,45,18.20
2012,06,26,18,46,18.20
2012,06,26,18,47,18.20
2012,06,26,18,48,18.10
2012,06,26,18,49,18.10
2012,06,26,18,50,18.10
2012,06,26,18,51,18.10
2012,06,26,18,52,18.20
2012,06,26,18,53,18.20
2012,06,26,18,54,18.20
2012,06,26,18,55,18.30
2012,06,26,18,56,18.20
2012,06,26,18,57,18.20
2012,06,26,18,58,18.20
2012,06,26,18,59,18.20
2012,06,26,19,00,18.10
2012,06,26,19,01,18.10
2012,06,26,19,02,18.10
2012,06,26,19,03,18.10
2012,06,26,19,04,18.10
2012,06,26,19,05,18.10
2012,06,26,19,06,18.10
2012,06,26,19,07,18.10
2012,06,26,19,08,18.10
2012,06,26,19,09,18.20
2012,06,26,19,10,18.20
2012,06,26,19,11,18.30
2012,06,26,19,12,18.30
2012,06,26,19,13,18.30
2012,06,26,19,14,18.30
2012,06,26,19,15,18.30
2012,06,26,19,16,18.30
2012,06,26,19,17,18.30
2012,06,26,19,18,18.30
2012,06,26,19,19,18.20
2012,06,26,19,20,18.20
2012,06,26,19,21,18.20
2012,06,26,19,22,18.20
2012,06,26,19,23,18.10
2012,06,26,19,24,18.10
2012,06,26,19,25,18.00
2012,06,26,19,26,17.90
2012,06,26,19,27,17.90
2012,06,26,19,28,17.90
2012,06,26,19,29,17.70
2012,06,26,19,30,17.70
2012,06,26,19,31,17.60
2012,06,26,19,32,17.50
2012,06,26,19,33,17.50
2012,06,26,19,34,17.50
2012,06,26,19,35,17.50
2012,06,26,19,36,17.50
2012,06,26,19,37,17.60
2012,06,26,19,38,17.60
2012,06,26,19,39,17.70
2012,06,26,19,40,17.60
2012,06,26,19,41,17.60
2012,06,26,19,42,17.50
2012,06,26,19,43,17.50
2012,06,26,19,44,17.50
2012,06,26,19,45,17.50
2012,06,26,19,46,17.40
2012,06,26,19,47,17.40
2012,06,26,19,48,17.40
2012,06,26,19,49,17.40
2012,06,26,19,50,17.40
2012,06,26,19,51,17.40
2012,06,26,19,52,17.50
2012,06,26,19,53,17.50
2012,06,26,19,54,17.50
2012,06,26,19,55,17.50
2012,06,26,19,56,17.40
2012,06,26,19,57,17.40
2012,06,26,19,58,17.40
2012,06,26,19,59,17.40
2012,06,26,20,00,17.40
2012,06,26,20,01,17.40
2012,06,26,20,02,17.40
2012,06,26,20,03,17.40
2012,06,26,20,04,17.40
2012,06,26,20,05,17.40
2012,06,26,20,06,17.40
2012,06,26,20,07,17.40
2012,06,26,20,08,17.40
